EHI
0 0 0 0 0 0 0 0 0 0 0 0 0 0 0 0 0 0 0 0 0 0 1 0 0 0 0 0 0 0 0 0 0 0 0 0 0 0 0 0 0 0 0
0 0 0 0 0 0 0 0 0 0 0 0 0 0 0 0 0 0 0 0 0 0 1 0 0 0 0 0 0 0 0 0 0 0 0 0 0 0 0 0 0 0 0
0 0 0 0 0 0 0 0 0 0 0 0 0 0 0 0 0 0 0 0 0 0 0 0 0 0 0 0 0 0 0 0 0 0 0 0 0 0 0 0 0 0 0
0 0 0 0 0 0 0 0 0 0 0 0 0 0 0 0 0 0 0 0 0 0 0 0 0 0 0 0 0 0 0 0 0 0 0 0 0 0 0 0 0 0 0
0 0 0 0 0 0 0 0 0 0 0 0 0 0 0 0 0 0 0 0 0 0 0 0 0 0 0 0 0 0 0 0 0 0 0 0 0 0 0 0 0 0 0
0 0 0 0 0 0 0 0 0 0 0 0 0 0 0 0 0 0 0 0 0 0 0 0 0 0 0 0 0 0 0 0 0 0 1 0 0 0 0 0 0 0 0
0 0 0 0 0 0 0 0 0 0 0 0 0 0 0 0 0 0 0 0 0 0 0 0 0 0 0 0 0 0 0 0 0 0 0 0 0 0 0 0 0 0 0
0 0 0 0 0 0 0 0 0 0 0 0 0 0 0 0 0 0 0 0 0 0 0 0 0 0 0 0 0 0 0 0 0 0 0 0 0 0 0 0 0 0 0
0 0 0 0 0 0 0 0 0 0 0 0 0 0 0 0 0 0 0 0 0 0 0 0 0 0 0 0 0 0 0 0 0 0 0 0 0 0 0 0 0 0 0
0 0 0 0 0 0 0 0 0 0 0 0 0 0 0 0 0 0 0 0 0 0 0 0 0 0 0 0 0 0 0 0 0 0 0 0 0 0 0 0 0 0 0
0 0 0 0 0 0 0 0 0 0 0 0 0 0 0 0 0 0 0 0 0 0 0 0 0 0 0 0 0 0 0 0 0 0 0 0 0 0 0 0 0 0 0
0 0 0 0 0 0 0 0 0 0 0 0 0 0 0 0 0 0 0 0 0 0 0 0 0 0 0 0 0 0 0 0 0 0 0 0 0 0 0 0 0 0 0
0 0 0 0 0 0 0 0 0 0 0 0 0 0 0 0 0 0 0 0 0 0 0 0 0 0 0 0 0 0 0 0 0 0 0 0 0 0 0 0 0 0 0
0 0 0 0 0 0 0 0 0 0 0 0 0 0 0 0 0 0 0 0 0 0 0 0 0 0 0 0 0 0 0 0 0 0 0 0 0 0 0 0 0 0 0
0 0 0 0 0 0 0 0 0 0 0 0 0 0 0 0 0 0 0 0 0 0 0 0 0 0 0 0 0 0 0 0 0 0 0 0 0 0 0 0 0 0 0
0 0 0 0 0 0 0 0 0 0 0 0 0 0 0 0 0 0 0 0 0 0 0 0 0 0 0 0 0 0 0 0 0 0 0 0 0 0 0 0 0 0 0
0 0 0 0 0 0 0 0 0 0 0 0 0 0 0 0 0 0 0 0 0 0 0 0 0 0 0 0 0 0 0 0 0 0 0 0 0 0 0 0 0 0 0
1 0 0 0 0 0 0 0 0 0 0 0 0 0 0 0 0 0 0 0 0 0 0 0 0 0 0 0 0 0 0 0 0 0 0 0 0 0 0 0 0 0 0
2 1 0 0 0 0 0 0 0 0 0 0 0 0 0 0 0 0 0 0 0 0 0 0 0 0 0 0 0 0 0 0 0 0 0 0 0 0 0 0 0 0 0
2 1 0 0 0 0 0 0 0 0 0 0 0 0 0 0 0 0 0 0 0 0 0 0 0 0 0 0 0 0 0 0 0 0 0 0 0 0 0 0 0 0 0
3 1 0 0 0 0 0 0 0 0 0 0 0 0 0 0 0 0 0 0 0 0 0 0 0 0 0 0 0 0 0 0 0 0 0 0 0 0 0 0 0 0 0
5 4 2 1 0 0 0 0 0 0 0 0 0 0 0 0 0 0 0 0 0 0 0 0 0 0 0 0 0 0 0 0 0 0 0 0 0 0 0 0 0 0 0
7 6 4 2 1 1 0 0 0 0 0 0 0 0 0 0 0 0 0 0 0 0 0 0 0 0 0 0 0 0 0 0 0 0 0 0 0 0 0 0 0 0 0
6 5 4 3 2 1 0 0 0 0 0 0 0 0 0 0 0 0 0 0 0 0 0 0 0 0 0 0 0 0 0 0 0 0 0 0 0 0 0 0 0 0 0
3 3 3 2 1 1 0 0 0 0 0 0 0 0 0 0 0 0 0 0 0 0 0 0 0 0 0 0 0 0 0 0 0 0 0 0 0 0 0 0 0 0 0
1 1 1 1 0 0 0 0 0 0 0 0 0 0 0 0 0 0 0 0 0 0 0 0 0 0 0 0 0 0 0 0 0 0 0 0 0 0 0 0 0 0 0
Wind_Speed
3 2 1 1 1 2 2 1 1 1 1 1 2 4 4 4 4 4 3 10 11 11 12 14 14 13 13 12 12 12 12 12 11 10 11 11 11 11 10 10 9 9 8
3 3 2 2 1 1 1 2 2 1 1 1 1 2 4 4 4 4 3 6 11 11 11 13 13 13 13 13 13 12 12 12 12 11 11 11 11 11 11 10 10 9 8
4 3 3 2 1 2 2 2 2 2 2 1 1 1 2 3 4 5 5 3 4 9 11 11 11 12 13 13 13 13 12 12 12 12 11 11 11 11 10 10 10 9 9
5 4 3 2 2 2 3 3 2 2 2 2 1 0 1 2 3 3 3 3 3 3 7 11 11 10 11 12 13 13 13 12 12 12 11 12 12 11 11 11 10 10 9
5 4 3 2 3 3 3 2 2 2 1 1 0 0 0 1 1 2 2 3 4 4 3 6 10 10 11 12 12 13 13 13 12 12 12 12 12 12 11 11 11 11 10
5 4 3 3 3 3 3 2 3 2 1 0 1 2 1 0 0 1 1 2 2 4 4 4 3 5 9 10 10 11 13 13 13 13 12 13 13 12 12 12 12 12 11
5 4 3 3 3 3 2 2 2 3 2 1 3 3 3 2 1 0 1 1 1 2 3 3 3 2 3 7 8 9 11 12 12 12 11 12 12 12 12 12 12 12 12
5 5 4 3 3 3 3 3 3 2 2 2 2 3 3 4 4 2 1 1 1 1 2 3 3 3 2 1 3 7 8 9 11 11 11 11 11 11 12 12 12 12 13
5 5 5 4 3 3 2 2 3 3 2 2 1 3 3 2 2 3 2 1 0 1 1 1 3 3 3 2 2 4 6 7 8 9 10 10 10 10 10 11 11 12 13
5 5 5 5 4 3 3 2 3 3 3 2 2 1 1 3 3 0 3 3 2 0 1 1 2 2 3 2 3 3 4 4 5 6 6 7 8 9 10 10 12 12 12
4 5 5 5 5 3 3 3 3 3 3 2 1 1 2 2 2 3 0 3 3 2 1 1 1 2 3 3 2 3 4 3 3 3 3 3 5 6 9 10 12 12 13
3 4 5 5 5 4 4 3 3 4 3 3 2 2 2 2 1 2 2 1 2 3 2 1 1 2 2 3 4 6 5 4 3 3 2 3 4 4 6 8 10 11 12
3 5 5 5 4 4 4 4 3 3 3 3 2 2 1 1 2 2 2 1 1 2 2 2 2 2 3 3 3 7 6 5 5 4 4 4 4 4 5 6 8 9 9
5 6 6 6 6 6 5 4 3 3 3 2 2 2 1 1 1 2 3 3 1 2 3 3 2 2 2 3 4 7 4 7 7 6 6 6 6 6 6 6 6 6 7
5 7 7 7 6 6 5 5 3 3 3 3 2 2 1 1 0 1 2 3 4 1 2 3 2 2 2 2 5 4 4 8 9 9 9 9 8 8 8 8 8 8 8
6 7 7 8 7 6 6 5 3 3 4 3 3 2 2 1 1 1 1 2 3 4 2 3 3 2 2 3 6 5 6 9 11 11 11 11 11 11 10 10 10 9 9
7 8 9 8 8 7 6 6 5 5 5 4 4 4 4 3 2 1 1 1 2 3 3 3 2 2 2 3 3 4 5 5 5 11 12 12 13 13 12 12 12 11 11
7 8 8 8 8 8 7 7 7 6 6 6 6 5 5 4 4 3 2 2 2 3 3 4 3 2 4 4 4 4 5 5 5 9 12 13 13 13 14 14 13 13 13
7 7 8 8 8 8 8 8 8 7 7 7 7 6 6 5 5 4 4 4 3 3 3 3 4 3 3 3 3 4 5 4 5 7 10 11 12 13 14 14 14 14 14
7 7 8 8 8 7 7 7 7 7 7 7 7 7 7 7 7 7 5 6 5 4 3 3 4 4 4 4 2 3 4 4 4 5 6 6 8 10 12 13 14 14 14
8 7 7 6 6 6 6 6 6 7 7 7 6 6 7 9 11 9 6 6 6 5 4 4 5 4 4 3 4 3 4 4 4 4 4 4 4 4 5 9 12 14 15
5 6 6 6 6 6 7 10 7 6 6 7 7 6 7 8 10 13 14 12 10 8 7 6 5 6 7 6 4 4 4 3 5 3 3 5 3 5 5 5 10 14 15
4 4 5 5 5 6 8 9 11 6 6 6 7 6 6 6 7 6 8 11 12 14 13 8 8 9 8 7 6 6 6 6 7 5 3 5 4 6 6 7 13 15 16
4 4 3 3 3 4 5 7 7 5 4 5 5 5 5 5 4 4 5 6 7 8 10 9 9 10 10 8 8 8 8 6 6 5 5 5 5 6 7 6 12 15 16
2 2 2 2 2 1 2 3 3 2 2 4 3 3 3 3 4 4 3 5 7 7 9 11 12 13 15 15 10 5 5 5 7 6 5 5 6 6 5 7 10 15 16
2 3 2 2 2 2 3 1 1 1 1 2 2 2 1 2 4 4 3 5 7 8 6 7 8 10 11 12 14 10 8 8 7 6 6 6 6 4 5 5 6 7 8
Wind_Direction
123 117 115 114 118 121 129 129 132 137 127 129 137 142 149 158 165 176 198 199 196 193 194 190 187 186 185 184 182 182 181 177 174 172 171 169 168 167 167 164 162 159 157
118 118 110 95 90 97 109 119 113 100 113 126 131 137 147 159 171 178 195 209 206 201 202 197 194 192 190 190 189 189 190 187 181 180 180 178 176 175 175 173 171 169 167
111 113 109 94 78 81 88 79 65 62 69 72 82 127 143 161 170 183 190 203 211 213 210 203 201 200 197 195 195 196 195 193 189 188 186 185 184 183 181 179 179 178 177
110 104 100 83 76 84 84 82 63 58 51 53 40 338 147 163 182 185 184 196 203 213 216 210 205 204 204 203 204 203 200 196 195 194 193 192 191 190 189 187 186 186 185
114 109 100 91 88 82 75 83 69 80 68 39 27 59 19 166 186 184 182 197 204 205 208 219 212 208 211 212 211 209 206 202 200 200 199 199 198 197 196 195 193 192 192
117 110 106 96 96 90 73 67 61 52 74 47 35 42 357 324 146 141 166 168 187 198 198 208 209 218 220 220 218 214 212 209 207 206 204 204 204 203 202 201 200 198 198
124 114 111 97 100 100 100 86 69 49 26 37 61 24 359 359 9 5 109 111 144 182 177 188 193 203 228 228 226 222 216 214 212 211 209 209 210 207 207 207 206 205 205
136 127 122 120 116 103 79 67 69 67 19 44 104 88 30 358 349 355 353 124 123 123 169 189 192 194 205 198 222 222 217 217 218 217 215 215 215 212 210 212 211 210 211
142 133 136 129 121 118 114 97 87 92 61 13 78 133 136 197 303 330 331 356 114 121 157 169 180 184 188 182 196 218 217 219 224 227 225 220 218 215 213 215 218 217 216
152 146 144 136 127 129 134 125 100 102 103 49 5 34 131 154 144 334 331 337 334 267 203 177 169 172 169 162 177 187 202 207 219 233 234 227 221 217 218 220 223 222 221
165 160 153 142 136 138 140 125 112 104 108 112 75 41 49 54 84 127 279 323 334 312 272 214 172 165 166 165 170 181 174 186 204 223 235 239 237 233 232 231 233 234 232
177 177 163 155 151 149 153 149 134 125 122 115 106 96 107 105 109 125 147 267 293 298 307 295 207 192 184 176 189 176 172 177 191 204 220 240 249 250 247 240 239 242 243
188 193 173 166 162 166 168 158 143 140 141 138 141 135 134 151 163 147 134 153 327 310 327 315 254 212 196 178 190 183 187 190 199 211 222 234 246 256 260 256 252 252 253
193 187 180 178 175 172 173 164 155 167 162 165 162 152 147 156 153 158 153 137 64 340 332 304 307 242 208 189 206 196 207 212 216 223 231 236 241 247 253 257 258 258 260
194 187 183 180 179 176 175 167 171 185 177 188 189 182 188 207 149 151 151 149 144 150 291 294 305 288 238 217 217 208 220 228 229 233 239 244 246 246 247 248 249 249 252
193 180 182 181 181 180 176 171 176 186 181 195 193 189 203 213 198 144 142 148 149 157 213 265 263 268 244 229 222 219 230 237 238 241 245 249 250 249 247 246 246 246 248
187 184 183 182 183 186 183 180 189 189 194 206 206 202 219 215 211 213 178 158 161 155 197 267 267 270 244 249 247 242 246 242 244 246 249 253 252 250 247 246 246 246 247
188 185 181 183 190 192 189 189 198 200 200 209 216 211 223 219 218 221 210 210 205 190 189 244 273 273 258 250 246 248 248 242 238 248 250 253 253 250 246 244 244 245 246
188 186 182 188 195 194 195 200 202 204 206 211 213 213 220 211 220 222 218 219 222 217 196 217 256 259 266 265 266 267 261 259 255 253 253 253 254 252 247 244 243 244 245
188 190 191 192 194 194 197 204 207 211 214 217 217 216 217 210 215 217 220 222 221 224 220 225 248 259 262 267 250 262 278 266 262 263 262 260 257 257 253 248 247 246 246
198 193 190 193 195 198 207 206 209 214 217 225 229 226 225 222 220 216 217 217 215 222 227 233 246 255 256 255 245 239 252 268 269 250 260 263 257 257 258 253 250 247 246
203 189 193 194 201 214 215 210 205 217 215 220 229 237 241 237 236 233 233 226 213 215 223 227 237 239 249 239 238 235 238 251 272 252 220 258 237 250 250 243 246 247 246
195 184 192 195 207 223 222 216 214 214 221 225 226 231 245 247 241 243 248 247 239 233 225 222 233 242 245 236 227 237 233 230 241 239 209 259 247 251 250 250 246 247 248
187 180 183 193 206 228 228 230 229 225 231 237 235 230 235 251 257 252 256 261 258 252 243 234 235 245 244 239 226 232 240 245 251 246 202 245 251 247 254 248 249 247 248
162 160 163 187 206 256 258 249 228 220 245 259 263 254 242 251 277 272 263 270 274 273 265 253 246 251 253 251 242 239 240 240 257 255 207 221 249 254 255 253 252 247 247
120 115 110 103 115 92 53 60 167 161 267 286 296 291 257 268 293 294 265 264 272 276 282 286 272 265 260 258 248 233 233 239 248 255 224 212 238 235 262 254 248 246 246